Hastings, NE

2:54 PM CDT on May 25, 2017 (GMT -0500)
Hastings Municipal

Weather History for KHSI - July, 2013

Change the Weather History Date:

Sunday, July 28, 2013

  Actual Average Record
Temperature  
Mean Temperature 61 °F 77 °F  
Max Temperature 69 °F 88 °F 105 °F (1931)
Min Temperature 52 °F 67 °F 51 °F (1994)
Degree Days  
Heating Degree Days 4 0  
Month to date heating degree days 5 0  
Since 1 June heating degree days 32 21  
Since 1 July heating degree days 5 0  
Cooling Degree Days 0 12  
Month to date cooling degree days 321 339  
Year to date cooling degree days 631 623  
Since 1 June cooling degree days 557 564  
Growing Degree Days 11 (Base 50)    
Moisture  
Dew Point 52 °F    
Average Humidity 73    
Maximum Humidity 93    
Minimum Humidity 52    
Precipitation  
Precipitation 0.00 in 0.10 in 1.52 in (1962)
Month to date precipitation 1.10 3.41  
Year to date precipitation 14.14 17.03  
Snow  
Snow 0.00 in 0.00 in - ()
Month to date snowfall 0.0 0.0  
Since 1 June snowfall 0.0 0.0  
Since 1 July snowfall 0.0 0.0  
Snow Depth 0.00 in    
Sea Level Pressure  
Sea Level Pressure 30.04 in    
Wind  
Wind Speed 6 mph (SE)    
Max Wind Speed 14 mph    
Max Gust Speed 17 mph    
Visibility 10 miles    
Events      
T = Trace of Precipitation, MM = Missing Value Source: NWS Daily Summary

Daily Weather History Graph

Daily Weather History Graph

Search for Another Location

Airport or City:

Trip Planner

Search our weather history database for the weather conditions in past years. The results will help you decide how hot, cold, wet, or windy it might be!

Date:

Astronomy

Jul. 28, 2013 Rise Set
Actual Time 6:27 AM CDT 8:52 PM CDT
Civil Twilight 5:56 AM CDT 9:23 PM CDT
Nautical Twilight 5:17 AM CDT 10:01 PM CDT
Astronomical Twilight 4:34 AM CDT 10:44 PM CDT
Moon No Moon Rise 1:13 PM CDT (7/28)
Length of Visible Light 15h 27m
Length of Day
14h 25m
Waning Gibbous, 60% of the Moon is Illuminated
Jul 28
Waning Gibbous
Jul 29
Last Quarter
Aug 6
New
Aug 14
First Quarter
Aug 20
Full

Hourly Weather History & Observations

Time (CDT) Temp. Dew Point Humidity Pressure Visibility Wind Dir Wind Speed Gust Speed Precip Events Conditions
12:53 AM 57.0 °F 53.1 °F 87% 30.06 in 10.0 mi Calm Calm - N/A   Clear
1:53 AM 55.9 °F 52.0 °F 87% 30.06 in 10.0 mi Calm Calm - N/A   Clear
2:53 AM 53.1 °F 51.1 °F 93% 30.06 in 10.0 mi Calm Calm - N/A   Clear
3:53 AM 55.0 °F 52.0 °F 89% 30.05 in 10.0 mi Calm Calm - N/A   Overcast
4:53 AM 54.0 °F 51.1 °F 90% 30.05 in 9.0 mi East 3.5 mph - N/A   Partly Cloudy
5:53 AM 54.0 °F 48.9 °F 83% 30.04 in 10.0 mi ESE 4.6 mph - N/A   Clear
6:53 AM 53.1 °F 48.9 °F 86% 30.04 in 10.0 mi East 3.5 mph - N/A   Clear
7:53 AM 57.9 °F 46.9 °F 67% 30.05 in 10.0 mi ESE 6.9 mph - N/A   Clear
8:53 AM 60.1 °F 46.9 °F 62% 30.05 in 10.0 mi ESE 6.9 mph - N/A   Clear
9:53 AM 64.0 °F 48.9 °F 58% 30.05 in 10.0 mi SE 11.5 mph - N/A   Mostly Cloudy
10:53 AM 66.0 °F 48.0 °F 52% 30.04 in 10.0 mi SSE 9.2 mph - N/A   Clear
11:53 AM 68.0 °F 51.1 °F 55% 30.05 in 10.0 mi SSE 9.2 mph - N/A   Overcast
12:53 PM 68.0 °F 53.1 °F 59% 30.05 in 10.0 mi SSE 8.1 mph - N/A   Overcast
1:53 PM 69.1 °F 52.0 °F 54% 30.04 in 10.0 mi South 8.1 mph - N/A   Overcast
2:53 PM 69.1 °F 51.1 °F 53% 30.04 in 10.0 mi SSE 8.1 mph - N/A   Overcast
3:53 PM 68.0 °F 53.1 °F 59% 30.03 in 10.0 mi SSE 9.2 mph - N/A   Overcast
4:53 PM 66.9 °F 54.0 °F 63% 30.03 in 10.0 mi SSE 8.1 mph - N/A   Overcast
5:53 PM 66.9 °F 54.0 °F 63% 30.02 in 10.0 mi SSE 6.9 mph - N/A   Overcast
6:53 PM 66.0 °F 55.0 °F 68% 30.01 in 10.0 mi SSE 8.1 mph - N/A   Overcast
7:53 PM 64.9 °F 54.0 °F 68% 30.02 in 10.0 mi SSE 8.1 mph - N/A   Overcast
8:01 PM 64.4 °F 55.4 °F 73% 30.04 in 10.0 mi SSE 8.1 mph - N/A   Overcast
8:53 PM 64.0 °F 52.0 °F 65% 30.01 in 10.0 mi SE 5.8 mph - N/A   Overcast
9:53 PM 63.0 °F 54.0 °F 72% 30.02 in 10.0 mi SE 8.1 mph - N/A   Overcast
10:53 PM 63.0 °F 54.0 °F 72% 30.03 in 10.0 mi South 6.9 mph - N/A   Overcast
11:53 PM 63.0 °F 54.0 °F 72% 30.02 in 10.0 mi SE 5.8 mph - N/A   Overcast